QPF
0.00 0.00 0.00 0.00 0.00 0.00 0.00 0.00 0.00 0.00 0.00 0.00 0.00 0.00 0.00 0.00 0.00 0.00 0.00 0.00 0.00 0.00 0.00 0.00 0.00 0.00 0.00 0.00 0.00 0.00 0.00 0.00 0.00 0.00 0.00 0.04 0.09 0.04 0.01 0.02 0.07 0.03 0.01
0.00 0.00 0.00 0.00 0.00 0.00 0.00 0.00 0.00 0.00 0.00 0.00 0.00 0.00 0.00 0.00 0.00 0.00 0.00 0.00 0.00 0.00 0.00 0.00 0.00 0.00 0.00 0.00 0.00 0.00 0.00 0.00 0.00 0.00 0.00 0.02 0.05 0.05 0.01 0.00 0.04 0.08 0.11
0.00 0.00 0.00 0.00 0.00 0.00 0.00 0.00 0.00 0.00 0.00 0.00 0.00 0.00 0.00 0.00 0.00 0.00 0.00 0.00 0.00 0.00 0.00 0.00 0.00 0.00 0.00 0.00 0.00 0.00 0.00 0.00 0.00 0.00 0.00 0.01 0.04 0.09 0.04 0.01 0.04 0.06 0.07
0.00 0.00 0.00 0.00 0.00 0.00 0.00 0.00 0.00 0.00 0.00 0.00 0.00 0.00 0.00 0.00 0.00 0.00 0.00 0.00 0.00 0.00 0.00 0.00 0.00 0.00 0.00 0.00 0.00 0.00 0.00 0.00 0.00 0.00 0.00 0.00 0.01 0.04 0.05 0.05 0.08 0.11 0.09
0.00 0.00 0.00 0.00 0.00 0.00 0.00 0.00 0.00 0.00 0.00 0.00 0.00 0.00 0.00 0.00 0.00 0.00 0.00 0.00 0.00 0.00 0.00 0.00 0.00 0.00 0.00 0.00 0.00 0.00 0.00 0.00 0.00 0.00 0.00 0.00 0.01 0.01 0.05 0.06 0.09 0.16 0.19
0.00 0.00 0.00 0.00 0.00 0.00 0.00 0.00 0.00 0.00 0.00 0.00 0.00 0.00 0.00 0.00 0.00 0.00 0.01 0.00 0.00 0.00 0.01 0.01 0.00 0.00 0.00 0.00 0.00 0.00 0.00 0.00 0.00 0.00 0.00 0.00 0.00 0.00 0.01 0.05 0.02 0.18 0.30
0.00 0.00 0.00 0.00 0.00 0.00 0.00 0.00 0.00 0.00 0.00 0.00 0.00 0.00 0.00 0.01 0.01 0.01 0.01 0.01 0.01 0.02 0.02 0.02 0.01 0.00 0.00 0.00 0.01 0.00 0.00 0.00 0.00 0.00 0.00 0.00 0.00 0.00 0.00 0.00 0.06 0.16 0.25
0.00 0.00 0.00 0.00 0.00 0.00 0.00 0.00 0.00 0.00 0.00 0.00 0.00 0.00 0.00 0.00 0.00 0.00 0.00 0.00 0.00 0.00 0.02 0.03 0.02 0.02 0.02 0.01 0.00 0.01 0.00 0.00 0.00 0.00 0.00 0.00 0.00 0.00 0.00 0.00 0.03 0.11 0.13
0.00 0.00 0.00 0.00 0.00 0.00 0.00 0.00 0.00 0.00 0.00 0.00 0.00 0.00 0.00 0.00 0.00 0.00 0.00 0.00 0.00 0.00 0.00 0.00 0.00 0.00 0.01 0.01 0.00 0.01 0.00 0.00 0.00 0.00 0.00 0.00 0.00 0.00 0.00 0.00 0.01 0.06 0.08
0.00 0.00 0.00 0.00 0.00 0.00 0.00 0.00 0.00 0.00 0.00 0.00 0.00 0.00 0.00 0.00 0.00 0.00 0.00 0.00 0.00 0.00 0.00 0.00 0.00 0.00 0.01 0.01 0.01 0.00 0.00 0.00 0.00 0.00 0.00 0.00 0.00 0.00 0.00 0.00 0.01 0.06 0.08
0.00 0.00 0.00 0.00 0.00 0.00 0.00 0.00 0.00 0.00 0.00 0.00 0.00 0.00 0.00 0.00 0.00 0.00 0.00 0.00 0.00 0.00 0.00 0.00 0.00 0.00 0.00 0.00 0.01 0.00 0.01 0.01 0.00 0.00 0.00 0.00 0.00 0.00 0.00 0.00 0.01 0.05 0.07
0.00 0.00 0.00 0.00 0.00 0.00 0.00 0.00 0.00 0.00 0.00 0.00 0.00 0.00 0.00 0.00 0.00 0.00 0.00 0.00 0.00 0.00 0.00 0.00 0.01 0.01 0.01 0.00 0.00 0.01 0.01 0.00 0.00 0.00 0.00 0.00 0.00 0.00 0.00 0.01 0.01 0.04 0.09
0.00 0.00 0.00 0.00 0.00 0.00 0.00 0.00 0.00 0.00 0.00 0.00 0.00 0.00 0.00 0.00 0.00 0.00 0.00 0.00 0.00 0.00 0.00 0.00 0.00 0.00 0.00 0.00 0.00 0.00 0.01 0.01 0.00 0.00 0.00 0.00 0.00 0.00 0.00 0.02 0.02 0.04 0.08
0.00 0.00 0.00 0.00 0.00 0.00 0.00 0.00 0.00 0.00 0.00 0.00 0.00 0.00 0.00 0.00 0.00 0.00 0.00 0.00 0.00 0.00 0.00 0.00 0.00 0.00 0.00 0.00 0.00 0.00 0.00 0.01 0.00 0.00 0.00 0.00 0.00 0.00 0.00 0.02 0.04 0.05 0.08
0.00 0.00 0.00 0.00 0.00 0.00 0.00 0.00 0.00 0.00 0.00 0.00 0.00 0.00 0.00 0.00 0.00 0.00 0.00 0.00 0.00 0.00 0.00 0.00 0.00 0.00 0.00 0.01 0.01 0.00 0.00 0.01 0.01 0.00 0.00 0.00 0.00 0.00 0.01 0.01 0.04 0.07 0.06
0.00 0.00 0.00 0.00 0.00 0.00 0.00 0.00 0.00 0.00 0.00 0.00 0.00 0.00 0.00 0.00 0.00 0.00 0.00 0.00 0.00 0.00 0.00 0.00 0.00 0.00 0.00 0.02 0.03 0.01 0.01 0.01 0.00 0.00 0.00 0.00 0.00 0.00 0.01 0.01 0.07 0.11 0.06
0.00 0.00 0.00 0.00 0.00 0.00 0.00 0.00 0.00 0.00 0.00 0.00 0.00 0.00 0.00 0.00 0.00 0.00 0.00 0.00 0.01 0.00 0.00 0.00 0.00 0.00 0.01 0.01 0.02 0.01 0.00 0.00 0.00 0.00 0.00 0.00 0.00 0.00 0.01 0.05 0.09 0.14 0.09
0.00 0.00 0.00 0.00 0.00 0.00 0.00 0.00 0.00 0.00 0.00 0.00 0.00 0.00 0.00 0.00 0.00 0.00 0.00 0.00 0.01 0.00 0.00 0.00 0.00 0.00 0.01 0.02 0.04 0.02 0.01 0.00 0.00 0.00 0.00 0.00 0.00 0.01 0.02 0.06 0.19 0.15 0.14
0.00 0.00 0.00 0.00 0.00 0.00 0.00 0.00 0.00 0.00 0.00 0.00 0.00 0.00 0.00 0.00 0.00 0.00 0.00 0.00 0.00 0.00 0.00 0.00 0.00 0.01 0.02 0.03 0.03 0.02 0.01 0.00 0.00 0.00 0.03 0.02 0.00 0.01 0.05 0.08 0.26 0.19 0.16
0.00 0.00 0.00 0.00 0.00 0.00 0.00 0.00 0.00 0.00 0.00 0.00 0.00 0.00 0.00 0.00 0.00 0.00 0.00 0.00 0.00 0.00 0.00 0.00 0.01 0.01 0.02 0.03 0.03 0.02 0.01 0.00 0.00 0.02 0.11 0.03 0.00 0.01 0.05 0.08 0.20 0.16 0.19
0.00 0.00 0.00 0.00 0.00 0.00 0.00 0.00 0.00 0.00 0.00 0.00 0.00 0.00 0.00 0.00 0.00 0.00 0.00 0.00 0.00 0.00 0.00 0.01 0.01 0.02 0.04 0.04 0.05 0.03 0.02 0.00 0.01 0.02 0.06 0.03 0.02 0.01 0.01 0.03 0.13 0.15 0.05
0.00 0.00 0.00 0.00 0.00 0.00 0.00 0.00 0.00 0.00 0.00 0.00 0.00 0.00 0.00 0.00 0.00 0.00 0.00 0.00 0.00 0.00 0.00 0.00 0.01 0.03 0.06 0.05 0.07 0.08 0.05 0.03 0.04 0.06 0.05 0.02 0.01 0.01 0.01 0.03 0.07 0.03 0.02
0.00 0.00 0.00 0.00 0.00 0.00 0.00 0.00 0.00 0.00 0.00 0.00 0.00 0.00 0.00 0.00 0.00 0.00 0.00 0.00 0.00 0.00 0.02 0.01 0.00 0.02 0.03 0.02 0.04 0.09 0.02 0.01 0.04 0.05 0.09 0.01 0.00 0.01 0.01 0.04 0.03 0.01 0.01
0.00 0.00 0.00 0.00 0.00 0.00 0.00 0.00 0.00 0.00 0.00 0.00 0.00 0.00 0.00 0.00 0.00 0.00 0.00 0.00 0.00 0.01 0.01 0.00 0.00 0.00 0.05 0.03 0.02 0.04 0.04 0.01 0.06 0.07 0.10 0.02 0.01 0.02 0.02 0.04 0.05 0.08 0.07
0.00 0.00 0.00 0.00 0.00 0.00 0.00 0.00 0.00 0.00 0.00 0.00 0.00 0.00 0.00 0.00 0.00 0.00 0.00 0.00 0.00 0.00 0.00 0.00 0.00 0.00 0.02 0.09 0.10 0.07 0.04 0.00 0.04 0.09 0.02 0.00 0.01 0.01 0.02 0.05 0.05 0.07 0.10
0.00 0.00 0.00 0.00 0.00 0.00 0.00 0.00 0.00 0.00 0.00 0.00 0.00 0.00 0.00 0.00 0.01 0.00 0.00 0.00 0.00 0.00 0.00 0.00 0.00 0.00 0.01 0.05 0.05 0.06 0.05 0.02 0.04 0.11 0.01 0.01 0.01 0.02 0.04 0.02 0.03 0.03 0.03
MSLP
1010.59 1010.99 1011.85 1012.37 1012.93 1013.36 1013.66 1013.85 1014.13 1014.36 1014.61 1014.85 1015.01 1015.04 1015.19 1015.40 1015.55 1015.65 1015.71 1015.81 1015.86 1015.92 1016.01 1016.08 1016.14 1016.08 1016.20 1016.05 1015.90 1016.00 1016.12 1016.13 1015.99 1015.94 1015.89 1015.97 1016.01 1016.06 1016.04 1016.11 1016.18 1015.83 1016.47
1009.57 1010.69 1011.53 1012.09 1012.51 1012.97 1013.25 1013.53 1013.81 1014.06 1014.39 1014.66 1014.82 1014.96 1015.17 1015.32 1015.43 1015.60 1015.70 1015.74 1015.79 1015.76 1015.86 1015.80 1015.79 1015.93 1015.92 1016.10 1015.79 1015.94 1015.97 1016.08 1016.01 1016.01 1015.95 1015.74 1015.80 1015.90 1015.96 1016.00 1016.10 1015.87 1016.32
1009.44 1010.35 1011.18 1011.72 1012.11 1012.47 1012.90 1013.28 1013.65 1013.94 1014.17 1014.37 1014.61 1014.79 1014.98 1015.13 1015.38 1015.54 1015.58 1015.67 1015.70 1015.67 1015.75 1015.80 1015.78 1015.63 1015.62 1016.03 1015.79 1015.83 1015.74 1015.97 1015.98 1015.89 1015.88 1015.41 1015.30 1015.67 1015.74 1015.82 1015.94 1016.12 1016.40
1009.23 1009.99 1010.53 1011.35 1011.72 1012.12 1012.58 1012.97 1013.32 1013.64 1013.97 1014.17 1014.37 1014.54 1014.83 1014.91 1015.00 1015.14 1015.19 1015.29 1015.32 1015.48 1015.47 1015.42 1015.54 1015.70 1015.42 1015.87 1015.72 1015.81 1015.72 1015.79 1015.73 1015.71 1015.43 1015.45 1015.28 1015.49 1015.55 1015.61 1015.84 1015.97 1016.37
1009.34 1009.71 1010.17 1010.82 1011.41 1011.82 1012.20 1012.51 1012.99 1013.31 1013.62 1013.87 1014.07 1014.29 1014.51 1014.64 1014.72 1014.82 1014.95 1014.97 1015.02 1015.00 1015.07 1015.18 1015.02 1015.28 1015.30 1015.34 1015.51 1015.62 1015.59 1015.60 1015.67 1015.52 1015.34 1015.49 1015.42 1015.25 1015.48 1015.51 1015.69 1016.06 1016.33
1008.97 1009.42 1009.81 1010.27 1010.87 1011.45 1011.91 1012.28 1012.60 1012.95 1013.33 1013.63 1013.88 1014.11 1014.30 1014.34 1014.48 1014.62 1014.69 1014.72 1014.72 1014.67 1014.77 1014.84 1014.58 1014.88 1015.04 1015.06 1015.20 1015.30 1015.33 1015.49 1015.55 1015.02 1015.28 1015.29 1015.48 1015.32 1015.53 1015.47 1015.61 1015.96 1016.36
1008.64 1009.04 1009.49 1010.06 1010.54 1011.13 1011.67 1012.15 1012.50 1012.82 1013.22 1013.53 1013.72 1013.92 1014.10 1014.18 1014.22 1014.34 1014.38 1014.45 1014.51 1014.37 1014.37 1014.46 1014.48 1014.66 1014.78 1014.82 1014.79 1014.83 1015.23 1015.32 1015.25 1014.80 1015.09 1015.15 1015.15 1015.46 1015.47 1015.33 1015.45 1015.95 1016.39
1008.29 1008.71 1009.25 1009.94 1010.27 1010.75 1011.33 1011.88 1012.37 1012.68 1013.02 1013.36 1013.50 1013.69 1013.75 1013.90 1014.02 1014.07 1014.16 1014.18 1014.19 1014.00 1014.01 1014.15 1014.39 1014.36 1014.57 1014.71 1014.74 1014.91 1015.10 1015.18 1014.87 1014.65 1014.91 1014.96 1014.99 1015.35 1015.33 1015.18 1015.28 1015.79 1016.32
1008.34 1008.76 1009.04 1009.49 1010.09 1010.60 1011.05 1011.49 1011.96 1012.40 1012.79 1013.08 1013.25 1013.47 1013.62 1013.72 1013.84 1013.94 1014.00 1013.95 1013.97 1013.85 1013.78 1013.88 1014.10 1014.23 1014.39 1014.50 1014.56 1014.56 1014.69 1014.88 1014.43 1014.39 1014.76 1014.71 1014.94 1015.15 1015.17 1015.03 1015.17 1015.55 1016.05
1008.33 1008.41 1008.80 1009.18 1009.70 1010.24 1010.73 1011.35 1011.69 1012.02 1012.41 1012.71 1013.01 1013.32 1013.38 1013.53 1013.69 1013.81 1013.85 1013.80 1013.84 1013.83 1013.79 1013.75 1013.78 1013.86 1013.96 1014.05 1014.22 1014.26 1014.41 1014.54 1014.29 1014.34 1014.50 1014.24 1014.87 1015.01 1014.86 1014.84 1014.93 1015.27 1015.80
1008.00 1008.20 1008.57 1009.05 1009.15 1009.61 1010.33 1010.92 1011.54 1011.83 1012.13 1012.44 1012.71 1013.01 1013.18 1013.12 1013.30 1013.49 1013.61 1013.72 1013.70 1013.71 1013.66 1013.62 1013.58 1013.57 1013.64 1013.68 1013.80 1013.95 1014.06 1013.93 1013.89 1014.04 1013.87 1014.10 1014.78 1014.58 1014.63 1014.62 1014.66 1014.94 1015.47
1007.24 1007.36 1008.00 1008.63 1009.26 1009.74 1010.18 1010.79 1011.07 1011.41 1011.69 1011.98 1012.29 1012.61 1012.70 1012.97 1013.24 1013.47 1013.59 1013.64 1013.61 1013.56 1013.44 1013.30 1013.21 1013.20 1013.27 1012.74 1012.79 1013.43 1013.40 1013.34 1013.39 1013.50 1013.66 1014.10 1014.56 1014.46 1014.42 1014.40 1014.32 1014.70 1015.07
1006.38 1007.28 1007.64 1008.46 1009.08 1009.65 1009.96 1010.49 1010.97 1011.24 1011.58 1011.95 1012.23 1012.49 1012.56 1012.84 1013.00 1013.12 1013.12 1013.11 1013.14 1013.25 1013.12 1012.98 1012.88 1012.69 1012.54 1012.45 1012.30 1012.50 1012.57 1012.87 1013.02 1013.38 1013.67 1014.36 1014.31 1014.09 1014.22 1014.14 1014.14 1014.36 1014.81
1005.88 1006.81 1007.63 1007.83 1008.43 1009.18 1009.87 1010.14 1010.59 1011.01 1011.39 1011.58 1011.82 1012.23 1012.40 1012.58 1012.68 1012.83 1012.82 1012.84 1013.05 1012.98 1012.89 1012.89 1012.60 1012.63 1012.57 1012.39 1012.30 1012.37 1012.59 1012.79 1012.85 1013.28 1013.58 1014.02 1013.91 1013.95 1013.87 1013.87 1013.92 1014.06 1014.49
1005.20 1006.06 1007.27 1007.94 1008.11 1008.80 1009.51 1010.01 1010.48 1010.82 1011.07 1011.13 1011.53 1011.78 1012.09 1012.16 1012.28 1012.48 1012.59 1012.64 1012.72 1012.63 1012.62 1012.59 1012.54 1012.40 1012.33 1012.24 1012.20 1012.21 1012.33 1012.67 1013.06 1013.28 1013.45 1013.82 1013.97 1013.85 1013.66 1013.50 1013.59 1013.83 1014.38
1004.65 1005.48 1006.61 1007.51 1007.90 1008.53 1009.14 1009.86 1010.28 1010.65 1010.67 1010.97 1011.16 1011.47 1011.88 1011.95 1012.07 1012.23 1012.33 1012.35 1012.35 1012.50 1012.54 1012.48 1012.36 1012.37 1012.18 1012.23 1012.21 1012.19 1012.40 1012.65 1012.86 1013.12 1013.09 1013.04 1013.47 1013.38 1013.30 1013.25 1013.28 1013.57 1014.03
1003.88 1005.01 1005.77 1007.18 1007.87 1008.29 1008.93 1009.64 1010.04 1010.23 1010.56 1010.80 1010.98 1011.39 1011.50 1011.71 1011.79 1012.00 1011.99 1011.95 1011.90 1012.32 1012.50 1012.31 1012.23 1012.23 1012.16 1012.08 1012.01 1012.06 1012.16 1012.41 1012.55 1012.78 1012.82 1012.63 1012.68 1013.00 1012.93 1012.88 1012.95 1013.24 1013.70
1003.87 1004.84 1005.67 1006.35 1007.60 1008.04 1008.67 1009.37 1009.67 1009.98 1010.35 1010.64 1010.83 1010.93 1010.94 1011.14 1011.36 1011.46 1011.43 1011.33 1011.39 1011.75 1011.88 1011.95 1011.96 1011.93 1011.81 1011.81 1011.98 1012.06 1012.15 1012.24 1012.32 1012.42 1012.45 1012.50 1012.28 1012.25 1012.23 1012.59 1012.73 1013.07 1013.42
1003.31 1004.09 1005.01 1006.17 1007.31 1007.80 1008.46 1009.00 1009.48 1009.91 1010.23 1010.37 1010.46 1010.35 1010.42 1010.66 1010.85 1010.92 1010.91 1010.96 1011.22 1011.37 1011.64 1011.72 1011.75 1011.69 1011.62 1011.72 1011.77 1011.88 1012.06 1012.12 1012.20 1012.06 1012.25 1012.24 1012.21 1012.27 1012.15 1012.48 1012.56 1013.43 1013.61
1002.96 1003.59 1004.34 1005.31 1006.45 1007.59 1008.22 1008.91 1009.35 1009.70 1009.94 1009.98 1009.96 1009.80 1009.99 1010.12 1010.31 1010.39 1010.76 1010.90 1011.09 1011.19 1011.32 1011.55 1011.50 1011.50 1011.45 1011.39 1011.57 1011.76 1011.93 1012.01 1012.11 1012.25 1012.11 1012.33 1012.50 1012.43 1012.20 1011.98 1012.87 1013.60 1012.42
1003.18 1003.68 1004.29 1005.55 1006.67 1007.20 1007.73 1008.39 1008.90 1009.10 1009.38 1009.55 1009.58 1009.50 1009.57 1009.64 1009.70 1010.16 1010.44 1010.71 1010.98 1011.02 1011.00 1011.14 1011.14 1011.13 1011.21 1011.35 1011.55 1011.96 1012.07 1012.08 1012.08 1012.20 1012.14 1012.28 1012.53 1012.53 1012.33 1011.93 1013.25 1013.90 1013.97
1003.44 1004.20 1004.94 1005.62 1006.54 1007.19 1007.50 1008.21 1008.51 1008.82 1009.10 1009.25 1009.29 1009.24 1009.19 1009.20 1009.40 1009.82 1010.08 1010.48 1010.61 1010.68 1010.76 1010.81 1010.92 1010.92 1011.06 1011.13 1011.01 1011.19 1011.39 1011.78 1011.90 1012.11 1012.18 1012.35 1012.62 1012.53 1012.53 1012.37 1012.72 1013.31 1014.09
1003.94 1004.55 1005.06 1005.79 1006.53 1007.07 1007.67 1008.25 1008.61 1008.94 1009.07 1008.95 1008.90 1008.91 1009.04 1009.06 1009.19 1009.57 1009.80 1010.04 1010.18 1010.24 1010.20 1010.47 1010.67 1010.65 1010.63 1011.02 1010.93 1010.70 1010.55 1010.41 1011.51 1011.90 1012.00 1012.27 1012.74 1012.85 1012.75 1012.77 1012.85 1013.31 1013.93
1004.08 1004.64 1005.33 1005.90 1006.45 1007.21 1007.81 1007.99 1008.24 1008.48 1008.51 1008.70 1008.79 1008.99 1009.02 1009.04 1008.98 1009.28 1009.38 1009.67 1009.81 1009.86 1010.06 1010.23 1010.45 1010.37 1010.55 1010.55 1010.97 1010.59 1010.31 1010.27 1010.66 1011.64 1012.24 1012.52 1012.86 1013.10 1013.05 1013.19 1013.47 1013.93 1014.50
1004.14 1004.82 1005.44 1006.00 1006.59 1007.27 1007.70 1007.84 1008.10 1008.39 1008.58 1008.67 1008.82 1008.88 1008.91 1008.88 1008.97 1009.15 1009.25 1009.42 1009.58 1009.76 1009.97 1010.12 1010.30 1010.39 1010.28 1010.33 1010.30 1010.37 1010.42 1010.51 1010.53 1010.90 1012.00 1012.68 1013.04 1013.25 1013.48 1013.65 1013.92 1014.45 1014.92
1004.41 1005.07 1005.58 1006.06 1006.67 1007.22 1007.60 1007.91 1008.03 1008.24 1008.43 1008.50 1008.58 1008.60 1008.64 1008.79 1008.94 1008.98 1009.08 1009.18 1009.45 1009.60 1009.77 1009.89 1010.07 1010.25 1010.16 1010.22 1010.26 1010.40 1010.31 1010.45 1010.82 1010.84 1011.56 1012.56 1012.98 1013.48 1013.74 1014.16 1014.41 1014.55 1015.19
Thickness
5788 5783 5773 5766 5759 5754 5750 5748 5744 5740 5736 5732 5729 5727 5725 5723 5721 5721 5721 5720 5721 5721 5720 5720 5720 5720 5721 5726 5730 5730 5730 5731 5734 5734 5735 5735 5737 5739 5742 5743 5744 5747 5744
5795 5781 5772 5765 5760 5753 5749 5746 5742 5738 5733 5729 5726 5723 5720 5718 5716 5714 5714 5714 5714 5715 5715 5716 5718 5717 5718 5718 5725 5724 5726 5726 5728 5729 5730 5733 5734 5736 5737 5740 5741 5744 5743
5793 5781 5770 5763 5759 5754 5748 5743 5738 5733 5729 5726 5722 5719 5715 5712 5710 5708 5707 5706 5707 5708 5708 5708 5710 5713 5715 5711 5718 5719 5722 5721 5723 5726 5727 5731 5733 5733 5736 5738 5739 5740 5739
5791 5781 5772 5762 5757 5752 5746 5739 5734 5729 5725 5721 5717 5714 5709 5707 5705 5704 5704 5703 5703 5701 5702 5704 5705 5704 5709 5706 5710 5713 5716 5716 5719 5721 5725 5726 5729 5730 5734 5736 5736 5737 5736
5786 5778 5769 5762 5757 5751 5743 5737 5730 5725 5720 5717 5714 5710 5705 5703 5701 5700 5699 5700 5700 5700 5698 5697 5700 5700 5702 5704 5704 5706 5709 5712 5712 5715 5719 5721 5723 5728 5729 5733 5733 5733 5733
5785 5776 5769 5763 5756 5749 5741 5734 5728 5723 5716 5711 5707 5704 5701 5699 5696 5694 5695 5694 5695 5696 5695 5693 5696 5694 5696 5699 5700 5701 5702 5704 5706 5712 5712 5716 5717 5722 5724 5729 5730 5729 5729
5784 5776 5767 5760 5753 5746 5739 5732 5726 5720 5713 5707 5702 5698 5694 5692 5692 5690 5690 5689 5689 5690 5691 5690 5691 5689 5690 5693 5696 5698 5695 5697 5700 5707 5707 5709 5713 5716 5719 5724 5727 5725 5724
5782 5774 5764 5756 5750 5745 5737 5730 5723 5717 5710 5704 5699 5694 5691 5687 5685 5684 5683 5683 5683 5686 5686 5686 5683 5684 5683 5684 5687 5688 5688 5689 5693 5699 5700 5703 5707 5709 5713 5719 5721 5721 5719
5777 5769 5762 5754 5747 5740 5734 5727 5720 5714 5707 5701 5696 5691 5686 5683 5681 5678 5677 5676 5676 5678 5679 5678 5675 5676 5676 5676 5678 5682 5682 5684 5689 5692 5693 5697 5700 5703 5706 5713 5715 5716 5715
5771 5767 5760 5752 5745 5737 5730 5722 5716 5710 5703 5698 5692 5685 5681 5678 5675 5671 5669 5668 5668 5668 5668 5668 5667 5669 5670 5672 5672 5674 5677 5678 5682 5684 5687 5694 5694 5697 5703 5706 5711 5712 5712
5767 5764 5758 5750 5746 5738 5729 5721 5712 5706 5699 5693 5687 5680 5675 5673 5670 5666 5662 5661 5660 5659 5660 5660 5660 5663 5664 5666 5668 5668 5669 5673 5676 5678 5684 5689 5688 5694 5697 5702 5706 5708 5710
5764 5764 5758 5750 5740 5732 5725 5717 5710 5703 5696 5690 5683 5676 5672 5667 5662 5657 5654 5653 5652 5651 5652 5653 5655 5657 5658 5664 5665 5663 5665 5669 5672 5675 5677 5680 5681 5688 5692 5697 5702 5704 5707
5768 5759 5756 5746 5737 5728 5722 5714 5705 5698 5691 5684 5677 5671 5667 5661 5657 5653 5651 5648 5646 5644 5644 5647 5649 5653 5655 5656 5660 5660 5662 5662 5665 5666 5668 5668 5674 5682 5686 5692 5697 5701 5702
5765 5756 5749 5746 5739 5728 5717 5712 5702 5695 5687 5681 5675 5667 5662 5657 5653 5649 5647 5645 5641 5639 5639 5639 5642 5643 5645 5647 5649 5651 5651 5653 5657 5658 5660 5662 5669 5675 5681 5687 5693 5696 5698
5765 5757 5746 5740 5737 5727 5716 5707 5697 5690 5683 5679 5671 5665 5659 5654 5650 5645 5641 5638 5635 5634 5633 5633 5633 5635 5636 5637 5639 5641 5643 5643 5643 5646 5650 5653 5659 5666 5675 5683 5688 5691 5691
5765 5757 5747 5738 5733 5724 5714 5702 5693 5685 5681 5674 5668 5662 5654 5648 5644 5640 5636 5633 5631 5627 5626 5625 5626 5626 5628 5629 5631 5633 5634 5634 5636 5638 5643 5649 5653 5661 5669 5677 5683 5687 5688
5768 5756 5747 5734 5727 5720 5711 5699 5689 5683 5676 5669 5663 5656 5651 5645 5640 5634 5631 5628 5626 5621 5618 5618 5618 5618 5620 5622 5625 5626 5627 5627 5629 5632 5636 5644 5649 5655 5664 5672 5680 5685 5687
5763 5751 5743 5735 5722 5716 5707 5695 5687 5679 5672 5664 5659 5653 5648 5643 5636 5630 5628 5626 5622 5618 5615 5614 5613 5613 5615 5616 5616 5617 5619 5622 5625 5628 5631 5636 5645 5654 5661 5667 5676 5682 5685
5762 5754 5743 5731 5717 5712 5703 5693 5684 5676 5667 5661 5655 5651 5646 5641 5635 5629 5627 5623 5617 5614 5610 5608 5607 5608 5607 5608 5609 5611 5613 5616 5621 5625 5627 5631 5639 5646 5654 5661 5671 5672 5674
5761 5753 5744 5733 5720 5708 5699 5688 5680 5672 5664 5657 5653 5649 5644 5639 5633 5628 5621 5616 5612 5608 5605 5602 5602 5603 5602 5603 5602 5603 5606 5610 5615 5618 5622 5626 5631 5637 5646 5658 5659 5658 5655
5752 5746 5739 5724 5712 5704 5696 5685 5675 5668 5662 5656 5651 5647 5642 5637 5632 5624 5617 5611 5604 5602 5600 5598 5599 5598 5597 5597 5596 5593 5597 5603 5608 5613 5620 5624 5627 5632 5641 5653 5650 5655 5655
5743 5736 5727 5719 5708 5699 5693 5682 5675 5667 5659 5653 5648 5644 5640 5635 5628 5620 5613 5606 5602 5598 5598 5597 5596 5594 5593 5595 5595 5596 5595 5599 5606 5612 5618 5621 5624 5630 5639 5647 5653 5654 5651
5733 5726 5720 5712 5702 5694 5686 5677 5669 5661 5654 5651 5646 5642 5636 5630 5624 5617 5611 5605 5602 5600 5599 5597 5595 5594 5594 5592 5595 5598 5600 5608 5607 5612 5617 5622 5623 5628 5640 5645 5653 5658 5657
5726 5721 5713 5705 5697 5688 5680 5673 5665 5657 5651 5647 5643 5637 5631 5625 5621 5614 5611 5606 5603 5600 5597 5597 5597 5598 5597 5597 5596 5603 5611 5616 5612 5609 5614 5619 5623 5628 5637 5643 5647 5651 5648
5721 5713 5706 5698 5691 5683 5675 5669 5662 5654 5649 5644 5638 5632 5627 5623 5618 5614 5611 5607 5603 5599 5597 5598 5598 5600 5602 5601 5604 5607 5610 5615 5620 5619 5611 5616 5621 5628 5634 5638 5642 5641 5642
5715 5706 5700 5693 5685 5678 5671 5664 5658 5651 5646 5641 5636 5630 5625 5620 5616 5615 5611 5608 5605 5602 5601 5603 5604 5605 5606 5607 5609 5611 5615 5617 5617 5621 5619 5617 5622 5626 5630 5632 5633 5639 5638